Simultaneous Nadir Overpasses (SNOs) Predictions

Prediction of SNOs between METOP-C and LANDSAT-8 Satellite Orbit:

Table of predicted SNOs for the next 14.0 days since TLE Epoch: 11/4/2022
Index Date (METOP-C) Time (METOP-C) Lat,Lon (METOP-C) SZA (METOP-C ) Date (LANDSAT-8) Time (LANDSAT-8) Lat,Lon (LANDSAT-8) SZA (LANDSAT-8 ) Distance(km) Time Diff (sec)
1 11/07/2022 05:46:47 -81.10, -47.11 80.28 11/07/2022 05:46:59 -81.11, -46.95 80.25 2.75 12
2 11/07/2022 06:37:25 81.12, 120.79 99.81 11/07/2022 06:36:25 81.12, 120.78 99.78 0.58 60
3 11/10/2022 01:21:10 -81.11, 19.51 79.45 11/10/2022 01:21:13 -81.11, 19.48 79.45 0.60 3
4 11/10/2022 02:11:48 81.13,-172.59 100.64 11/10/2022 02:10:38 81.14,-172.45 100.63 2.70 70
5 11/12/2022 20:04:54 81.08, -82.43 101.17 11/12/2022 20:06:01 81.08, -82.25 101.22 3.17 67
6 11/12/2022 20:55:33 -81.12, 86.05 78.67 11/12/2022 20:55:26 -81.12, 86.07 78.67 0.69 7
7 11/15/2022 15:39:16 81.09, -15.58 101.95 11/15/2022 15:40:13 81.10, -15.51 101.98 1.37 57
8 11/15/2022 16:29:56 -81.12, 152.51 77.95 11/15/2022 16:29:39 -81.12, 152.47 77.96 0.64 17
9 11/18/2022 11:13:37 81.10, 51.20 102.67 11/18/2022 11:14:24 81.10, 51.04 102.67 2.78 47



Historial Predications of SNOs between METOP-C and LANDSAT-8
